BC, British Columbia

8:39 AM EST on February 26, 2017 (GMT -0500)
La Grande-4

Weather History for CYAH - June, 2013

Change the Weather History Date:

Wednesday, June 12, 2013

  Actual Average Record
Temperature  
Mean Temperature 61 °F -  
Max Temperature 79 °F 64 °F 84 °F (2007)
Min Temperature 43 °F 43 °F 28 °F (1997)
Degree Days  
Heating Degree Days 4    
Growing Degree Days 11 (Base 50)    
Moisture  
Dew Point 37 °F    
Average Humidity 39    
Maximum Humidity 82    
Minimum Humidity 10    
Precipitation  
Precipitation 0.00 in - - ()
Sea Level Pressure  
Sea Level Pressure 29.82 in    
Wind  
Wind Speed 5 mph ()    
Max Wind Speed 9 mph    
Max Gust Speed 17 mph    
Visibility 11.1 miles    
Events      
Averages and records for this station are not official NWS values.
T = Trace of Precipitation, MM = Missing Value Source: Averaged Metar Reports

Daily Weather History Graph

Daily Weather History Graph

Search for Another Location

Airport or City:

Trip Planner

Search our weather history database for the weather conditions in past years. The results will help you decide how hot, cold, wet, or windy it might be!

Date:

Astronomy

Jun. 12, 2013 Rise Set
Actual Time 4:24 AM EDT 9:25 PM EDT
Civil Twilight 3:31 AM EDT 10:18 PM EDT
Nautical Twilight 1:54 AM EDT 11:56 PM EDT
Astronomical Twilight Sun does not rise Sun does not rise
Moon 8:28 AM EDT (6/12) 11:26 PM EDT (6/12)
Length of Visible Light 18h 47m
Length of Day
17h 01m
Waxing Crescent, 14% of the Moon is Illuminated
Jun 12
Waxing Crescent
Jun 16
First Quarter
Jun 23
Full
Jun 30
Last Quarter
Jul 8
New

Hourly Weather History & Observations

Time (EDT) Temp. Windchill Dew Point Humidity Pressure Visibility Wind Dir Wind Speed Gust Speed Precip Events Conditions
12:00 AM 55.4 °F - 33.8 °F 44% 29.88 in 9.0 mi ESE 8.1 mph - N/A   Clear
1:00 AM 50.0 °F - 39.2 °F 66% 29.89 in 9.0 mi East 8.1 mph - N/A   Clear
2:00 AM 48 °F - 36 °F 54% 29.89 in 10 mi East 4.6 mph - -  
2:00 AM 48.2 °F - 35.6 °F 62% 29.88 in 9.0 mi East 5.8 mph - N/A   Clear
3:00 AM 48.2 °F - 39.2 °F 71% 29.88 in 9.0 mi East 6.9 mph - N/A   Clear
4:00 AM 44.6 °F - 39.2 °F 81% 29.88 in 9.0 mi Calm Calm - N/A   Clear
5:00 AM 46.4 °F 45.2 °F 41.0 °F 81% 29.88 in 9.0 mi NNE 3.5 mph - N/A   Clear
6:00 AM 48.2 °F - 42.8 °F 82% 29.88 in 9.0 mi ENE 5.8 mph - N/A   Clear
7:00 AM 57.2 °F - 42.8 °F 59% 29.88 in 9.0 mi NE 6.9 mph - N/A   Clear
8:00 AM 62 °F - 42 °F 37% 29.87 in 10 mi ENE 6.9 mph - -  
8:00 AM 60.8 °F - 42.8 °F 52% 29.87 in 9.0 mi NE 6.9 mph - N/A   Clear
9:00 AM 66.2 °F - 41.0 °F 40% 29.86 in 15.0 mi ENE 5.8 mph - N/A   Overcast
10:00 AM 69.8 °F - 39.2 °F 33% 29.85 in 15.0 mi ENE 6.9 mph - N/A   Overcast
11:00 AM 71.6 °F - 37.4 °F 29% 29.83 in 15.0 mi ENE 4.6 mph - N/A   Overcast
12:00 PM 75.2 °F - 37.4 °F 25% 29.82 in 15.0 mi NE 4.6 mph - N/A   Overcast
1:00 PM 77.0 °F - 35.6 °F 22% 29.81 in 15.0 mi North 9.2 mph - N/A   Overcast
2:00 PM 78 °F - 32 °F 10% 29.80 in 10 mi East 6.9 mph - -  
2:00 PM 78.8 °F - 35.6 °F 21% 29.78 in 15.0 mi NE 6.9 mph 17.3 mph N/A   Overcast
3:00 PM 78.8 °F - 35.6 °F 21% 29.79 in 15.0 mi NNW 8.1 mph - N/A   Overcast
4:00 PM 80.6 °F - 33.8 °F 18% 29.78 in 15.0 mi NNW 3.5 mph - N/A   Overcast
5:00 PM 78.8 °F - 32.0 °F 18% 29.76 in 15.0 mi NW 4.6 mph - N/A   Overcast
6:00 PM 78.8 °F - 26.6 °F 15% 29.75 in 9.0 mi NNW 9.2 mph - N/A   Clear
7:00 PM 77.0 °F - 26.6 °F 16% 29.74 in 9.0 mi NW 5.8 mph - N/A   Clear
8:00 PM 75 °F - 31 °F 11% 29.75 in 10 mi NNE 2.3 mph - -  
8:00 PM 75.2 °F - 32.0 °F 21% 29.75 in 9.0 mi NNE 2.3 mph - N/A   Clear
9:00 PM 68.0 °F - 39.2 °F 35% 29.75 in 9.0 mi WSW 4.6 mph - N/A   Clear
10:00 PM 64.4 °F - 39.2 °F 40% 29.75 in 9.0 mi SW 8.1 mph - N/A   Clear
11:00 PM 62.6 °F - 35.6 °F 37% 29.74 in 9.0 mi SW 5.8 mph - N/A   Clear